Regional Weather Roundup
Issued by NWS

Home | Current Version | Previous Version | Text Only | Print | Product List | Glossary Off
Versions: 1 2 3 4 5 6 7 8 9 10 11 12 13 14 15 16 17 18 19 20 21 22 23 24 25 26 27 28 29 30 31 32 33 34 35 36 37 38 39 40 41 42 43 44 45 46 47 48 49 50

000
ASUS43 KMKX 011221
RWRWI

WISCONSIN REGIONAL WEATHER ROUNDUP
NATIONAL WEATHER SERVICE MILWAUKEE/SULLIVAN WI
700 AM CDT MON SEP 01 2014

NOTE: "FAIR" INDICATES FEW OR NO CLOUDS BELOW 12,000 FEET WITH NO
SIGNIFICANT WEATHER AND/OR OBSTRUCTIONS TO VISIBILITY.

WIZ001-002-006>008-014>016-023>028-011300-
NORTHWEST WISCONSIN

CITY           SKY/WX    TMP DP  RH WIND       PRES   REMARKS
SUPERIOR ARPT  CLOUDY    64  63  98 W5        29.59S
6HR MIN TEMP:  62; 6HR MAX TEMP:  64; 6HR PCP:  0.63;

ASHLAND        LGT RAIN  63  62  97 SW8       29.62R FOG
6HR MIN TEMP:  65; 6HR MAX TEMP:  67; 6HR PCP:  0.34;

HAYWARD        HVY RAIN  64  63  96 SW8       29.63F FOG
6HR MIN TEMP:  64; 6HR MAX TEMP:  66; 6HR PCP:  0.61;

SIREN          CLOUDY    63  62  96 CALM      29.64R
6HR MIN TEMP:  63; 6HR MAX TEMP:  65; 6HR PCP:  0.12;

RICE LAKE      DRIZZLE   64  62  94 SW3       29.66S
6HR MIN TEMP:  64; 6HR MAX TEMP:  66; 6HR PCP:  0.01;

LADYSMITH      HVY RAIN  65  63  95 SW8       29.67R
6HR MIN TEMP:  65; 6HR MAX TEMP:  67; 6HR PCP:  0.75;

EAU CLAIRE     LGT RAIN  64  64 100 SW6       29.65R
6HR MIN TEMP:  64; 6HR MAX TEMP:  67; 6HR PCP:  0.39;

MENOMONIE      CLOUDY    64  64  99 S6        29.66R
6HR MIN TEMP:  64; 6HR MAX TEMP:  67; 6HR PCP:  0.42;

NEW RICHMOND   CLOUDY    63  63  99 SW5       29.64S
6HR MIN TEMP:  63; 6HR MAX TEMP:  66; 6HR PCP:  0.70;

OSCEOLA        CLOUDY    65  65 100 CALM      29.66S
6HR MIN TEMP:  65; 6HR MAX TEMP:  66; 6HR PCP:  0.09;

$$

WIZ003>005-009-010-017-018-011300-
NORTH CENTRAL WISCONSIN

CITY           SKY/WX    TMP DP  RH WIND       PRES   REMARKS
WOODRUFF       CLOUDY    64  62  92 W6        29.64F
6HR MIN TEMP:  64; 6HR MAX TEMP:  72; 6HR PCP:  0.01;

RHINELANDER    CLOUDY    62  60  93 S6        29.67F
6HR MIN TEMP:  62; 6HR MAX TEMP:  68; 6HR PCP:  0.21;

EAGLE RIVER    CLOUDY    63  63 100 CALM      29.64F
LAND O LAKES   CLOUDY    64  62  93 SW3       29.64F
6HR MIN TEMP:  64; 6HR MAX TEMP:  69; 6HR PCP:  0.16;

PHILLIPS       LGT RAIN  63  63  98 W6        29.65S
6HR MIN TEMP:  63; 6HR MAX TEMP:  67; 6HR PCP:  0.36;

TOMAHAWK       CLOUDY    61  60  95 CALM      29.66R
6HR MIN TEMP:  61; 6HR MAX TEMP:  67; 6HR PCP:  0.01;

MEDFORD        CLOUDY    61  60  97 S3        29.68R
6HR MIN TEMP:  60; 6HR MAX TEMP:  69;

MERRILL        CLOUDY    63  62  99 W3        29.66S
6HR MIN TEMP:  63; 6HR MAX TEMP:  70;

$$

WIZ029-030-035-036-043>047-011300-
CENTRAL WISCONSIN

CITY           SKY/WX    TMP DP  RH WIND       PRES   REMARKS
WAUSAU         CLOUDY    66  60  81 S5        29.65R
6HR MIN TEMP:  65; 6HR MAX TEMP:  72; 6HR PCP: TRACE;

MOSINEE        PTCLDY    63  63 100 S6        29.68R
MARSHFIELD     CLOUDY    63  61  93 SW6       29.67R
6HR MIN TEMP:  63; 6HR MAX TEMP:  73; 6HR PCP: TRACE;

STEVENS POINT  CLOUDY    64  58  81 S3        29.67S
6HR MIN TEMP:  64; 6HR MAX TEMP:  72;

WAUPACA        CLOUDY    71  65  84 S5        29.64F
6HR MIN TEMP:  70; 6HR MAX TEMP:  74;

WAUTOMA        CLOUDY    68  62  80 S3        29.66F
6HR MIN TEMP:  68; 6HR MAX TEMP:  75;

WISC RAPIDS    CLOUDY    66  60  81 CALM      29.67S
6HR MIN TEMP:  66; 6HR MAX TEMP:  76; 6HR PCP: TRACE;

CAMP DOUGLAS   LGT RAIN  66  66 100 VRB3      29.69R
6HR MIN TEMP:  65; 6HR MAX TEMP:  76; 6HR PCP: TRACE;

$$

WIZ011>013-019>022-031-037>040-048>050-011300-
NORTHEAST WISCONSIN

CITY           SKY/WX    TMP DP  RH WIND       PRES   REMARKS
ANTIGO         CLOUDY    63  61  93 S5        29.67F
6HR MIN TEMP:  63; 6HR MAX TEMP:  66;

STURGEON BAY   CLOUDY    68  66  94 S12       29.68F VSB 1/2
6HR MIN TEMP:  66; 6HR MAX TEMP:  70;

GREEN BAY      PTCLDY    70  68  93 S9        29.66F
6HR MIN TEMP:  68; 6HR MAX TEMP:  72;

MANITOWOC      FOG       68  66  94 S10       29.69F VSB 1/2
6HR MIN TEMP:  67; 6HR MAX TEMP:  68;

APPLETON       MOCLDY    70  68  94 S6        29.67F
CLINTONVILLE   CLOUDY    68  64  88 CALM      29.64F
OSHKOSH        CLOUDY    70  66  87 SE9       29.64F
6HR MIN TEMP:  70; 6HR MAX TEMP:  73;

$$

WIZ032>034-041-042-053>061-011300-
SOUTHWEST WISCONSIN

CITY           SKY/WX    TMP DP  RH WIND       PRES   REMARKS
LA CROSSE      LGT RAIN  66  62  87 S8        29.68R
6HR MIN TEMP:  66; 6HR MAX TEMP:  69; 6HR PCP:  0.12;

SPARTA         CLOUDY    64  61  89 W5        29.69R
6HR MIN TEMP:  64; 6HR MAX TEMP:  73; 6HR PCP:  0.01;

VIROQUA        PTSUNNY   65  65  99 SW10G17   29.71R
6HR MIN TEMP:  64; 6HR MAX TEMP:  67; 6HR PCP:  0.08;

BOSCOBEL       CLOUDY    67  63  87 SW7       29.69R
6HR MIN TEMP:  66; 6HR MAX TEMP:  69; 6HR PCP:  0.11;

PRAIRIE DU CHI CLOUDY    66  62  85 S6        29.70F
6HR MIN TEMP:  64; 6HR MAX TEMP:  67; 6HR PCP:  0.43;

PLATTEVILLE    FAIR      65  64  94 W10       29.73R
6HR MIN TEMP:  65; 6HR MAX TEMP:  71; 6HR PCP:  0.17;

$$

WIZ056-057-062-063-064-067-068-011300-
SOUTH CENTRAL WISCONSIN

CITY           SKY/WX    TMP DP  RH WIND       PRES   REMARKS
BARABOO/DELLS  CLOUDY    69  58  68 W8        29.69R
6HR MIN TEMP:  68; 6HR MAX TEMP:  74;

LONE ROCK      CLOUDY    73  61  65 W8        29.69R
6HR MIN TEMP:  72; 6HR MAX TEMP:  80; 6HR PCP:  0.01;

WATERTOWN      MOCLDY    68  68  99 E10       29.63F
6HR MIN TEMP:  68; 6HR MAX TEMP:  71;

MADISON        CLOUDY    69  61  75 SE12      29.67S
6HR MIN TEMP:  69; 6HR MAX TEMP:  75;

MIDDLETON      PTSUNNY   70  60  70 SW7       29.68R
6HR MIN TEMP:  69; 6HR MAX TEMP:  75;

MONROE         DRIZZLE   64  63  94 S5        29.71R
JANESVILLE     CLEAR     70  63  78 SE7       29.68F
$$

WIZ051-052-058>065-066-070>072-011300-
SOUTHEAST WISCONSIN

CITY           SKY/WX    TMP DP  RH WIND       PRES   REMARKS
MILWAUKEE      MOCLDY    71  69  93 S8        29.74F
6HR MIN TEMP:  71; 6HR MAX TEMP:  73;

WAUKESHA       MOCLDY    68  66  94 S7        29.74F FOG
MILWAUKEE/TIMM MOCLDY    72  66  83 S7        29.73F HAZE
RACINE         MOCLDY    73  69  87 S8        29.75F
6HR MIN TEMP:  71; 6HR MAX TEMP:  74;

BURLINGTON     MOCLDY    69  68  97 SE8       29.70F FOG
6HR MIN TEMP:  67; 6HR MAX TEMP:  69;

KENOSHA        PTCLDY    72  70  93 SE6       29.73F
6HR MIN TEMP:  71; 6HR MAX TEMP:  73;

FOND DU LAC    CLOUDY    70  66  87 MISG      29.66F
6HR MIN TEMP:  69; 6HR MAX TEMP:  74;

SHEBOYGAN      PTCLDY    68  67  96 SE8       29.70F FOG
6HR MIN TEMP:  66; 6HR MAX TEMP:  68;

WEST BEND      CLOUDY    70  64  83 SE5       29.70F FOG
JUNEAU         CLOUDY    68  67  95 E10       29.65F
6HR MIN TEMP:  68; 6HR MAX TEMP:  71;

$$

LSZ147-162-011300-
LAKE SUPERIOR

STATION/POSITION TIME  TEMP    WIND        PRES    WAVE
                       AIR SEA DIR/SP/G            HT/PER
                 (UTC) (F)     (DEG/KT/KT) (MB)    (FT/S)
W MID LAKE BUOY  1150   62 58  230/ 16/ 19 1000.3R   2/ 4
DEVILS ISLAND    1200   63     240/ 13/ 15 1001.3R
PORT WING        1140   65     220/  5/  8 1002.0R
SAXON HARBOR     1100   66     200/  5/ 11 1001.7S
$$

LMZ867-665-643>646-011300-
LAKE MICHIGAN

STATION/POSITION TIME  TEMP    WIND        PRES    WAVE
                       AIR SEA DIR/SP/G            HT/PER
                 (UTC) (F)     (DEG/KT/KT) (MB)    (FT/S)
N MID LAKE BUOY  1150   68 65  190/ 19/ 21 1005.4F   4/ 5
NORTHPORT PIER   1100   68     160/  8/ 16 1006.1S
KEWAUNEE LAKESHO 1100   60     180/  9/ 11 1005.8F
SHEBOYGAN LAKESH 1200   67 54  170/ 15/ 16 1005.7F
ATWATER BUOY     1200   70     150/ 12/ 14 1007.7F
MILWAUKEE LAKESH 1200   68     150/  9/ 10   N/A
S MID LAKE BUOY  1150   71 70  170/ 14/ 16 1008.3F
KENOSHA   LAKESH 1200   66     160/ 11/ 12 1006.8F
$$

TC  - TEMPERATURE IN CELSIUS
VSB - VISIBILITY IN STATUTE MILES
WCI - WIND CHILL INDEX
HX  - HEAT INDEX



USA.gov is the U.S. government's official web portal to all federal, state and local government web resources and services.